Flag for U.S.A. Weather past 2 weeks in Glendale, Arizona, U.S.A.

Now
47 °F

Clear.


Feels Like: 47 °F
Forecast: 46 / 70 °F
Wind: No wind

Location: Phoenix-Deer Valley Municipal Airport

Current Time: Mar 5, 2015 at 5:26:18 AM

Latest Report: Mar 5, 2015 at 4:53 AM


Visibility: 10 mi

Pressure: 30.16 "Hg

Humidity: 41%

Dew point: 24 °F

Location of GlendaleLocation

Historic Weather in Glendale — Graph

°F

Glendale temperature yesterday

Maximum temperature yesterday: 67 °F (at 3:53 PM)
Minimum temperature yesterday: 44 °F (at 5:53 AM)
Average temperature yesterday: 55 °F

Past Weeks' High & Low Weather Summary

 TemperatureHumidityPressure
High75 °F (Feb 18, 3:53 PM)96% (Feb 24, 1:53 AM)30.17 "Hg (Feb 24, 1:53 AM)
Low43 °F (Feb 25, 4:53 AM)11% (Feb 18, 12:53 PM)29.57 "Hg (Feb 27, 4:53 PM)
Average59 °F48%29.89 "Hg
* Reported Feb 18 3:53 AM — Mar 5 3:53 AM, Glendale, Weather by CustomWeather, © 2015

Note: Actual official high and low records may vary slightly from our data, if they occured in-between our weather recording intervals... More about our weather records

Advertising

Glendale weather history for previous 24 hours

 ConditionsComfort  
Time TempWeatherWind HumidityBarometerVisibility
3:53 AM
Thu, Mar 5
47 °FClear.3 mph46%30.15 "Hg10 mi
2:53 AM48 °FClear.No wind46%30.16 "Hg10 mi
1:53 AM49 °FClear.6 mph44%30.15 "Hg10 mi
12:53 AM50 °FClear.6 mph46%30.14 "Hg10 mi
11:53 PM
Wed, Mar 4
51 °FClear.7 mph54%30.13 "Hg10 mi
10:53 PM53 °FClear.7 mph55%30.12 "Hg10 mi
9:53 PM56 °FClear.No wind42%30.10 "Hg10 mi
8:53 PM57 °FClear.5 mph39%30.07 "Hg10 mi
7:53 PM59 °FClear.5 mph38%30.05 "Hg10 mi
6:53 PM63 °FClear.7 mph30%30.02 "Hg10 mi
5:53 PM65 °FSunny.9 mph27%29.99 "Hg10 mi
4:53 PM66 °FSunny.6 mph22%29.97 "Hg10 mi
3:53 PM67 °FSunny.8 mph22%29.96 "Hg10 mi
2:53 PM66 °FSunny.8 mph24%29.96 "Hg10 mi
1:53 PM65 °FSunny.9 mph22%29.96 "Hg10 mi
12:53 PM64 °FSunny.7 mph28%29.96 "Hg10 mi
11:53 AM62 °FSunny.3 mph37%29.98 "Hg10 mi
10:53 AM57 °FSunny.No wind47%29.98 "Hg10 mi
9:53 AM55 °FSunny.No wind59%29.97 "Hg10 mi
8:53 AM51 °FSunny.3 mph69%29.95 "Hg10 mi
7:53 AM48 °FSunny.9 mph71%29.92 "Hg10 mi
6:53 AM45 °FSunny.7 mph76%29.89 "Hg10 mi
5:53 AM44 °FClear.No wind82%29.87 "Hg10 mi
Weather by CustomWeather, © 2015

See weather overviewHow to use our weather pages